www.pogodaiklimat.ru
ПОГОДА в Пайндейле
Время
и дата
04:35 30.01
04:55 30.01
05:15 30.01
05:35 30.01
05:55 30.01
06:15 30.01
06:35 30.01
06:55 30.01
07:15 30.01
07:35 30.01
07:55 30.01
08:15 30.01
08:35 30.01
08:55 30.01
09:15 30.01
09:35 30.01
09:55 30.01
10:15 30.01
10:35 30.01
10:55 30.01
11:15 30.01
11:35 30.01
11:55 30.01
12:15 30.01
12:35 30.01
12:55 30.01
13:15 30.01
13:35 30.01
13:55 30.01
14:15 30.01
14:35 30.01
14:55 30.01
15:15 30.01
15:35 30.01
15:55 30.01
16:15 30.01
16:35 30.01
16:55 30.01
17:15 30.01
17:35 30.01
17:55 30.01
18:15 30.01
18:35 30.01
18:55 30.01
19:15 30.01
19:35 30.01
19:55 30.01
20:15 30.01
Ветер
(напр.,м/с)
Видим. Явления Облачность Т
(С)
Тd
(С)
f
(%)
Тe
(С)
Тes
(С)
Комфортность P
(гПа)
Po
(гПа)
Тmin
(С)
Tmax
(С)
R
(мм)
R24
(мм)
S
(см)
СЗ 3 16 км ясно -35.0 -40.0 60 -46 -46 опасность
обморожения
779.0
СЗ 5 16 км ясно -35.0 -39.0 67 -49 -49 опасность
обморожения
779.0
СЗ 4 16 км ясно -36.0 -40.0 66 -49 -49 опасность
обморожения
779.0
З 4 16 км ясно -35.0 -38.0 74 -47 -47 опасность
обморожения
779.0
З 3 16 км ясно -35.0 -39.0 67 -46 -46 опасность
обморожения
778.8
З 3 16 км ясно -34.0 -38.0 67 -44 -44 опасность
обморожения
778.8
З 3 16 км ясно -33.0 -37.0 67 -43 -43 опасность
обморожения
779.0
З 4 16 км ясно -32.0 -36.0 67 -44 -44 опасность
обморожения
779.0
штиль 0 16 км 5/0 3600 m
[Ac]
-32.0 -36.0 67 -32 -32 опасность
обморожения
779.0
штиль 0 16 км 5/0 3600 m
[Ac]
-33.0 -37.0 67 -33 -33 опасность
обморожения
779.3
ЮВ 2 16 км ясно -32.0 -36.0 67 -40 -40 опасность
обморожения
779.3
В 3 16 км ясно -32.0 -36.0 67 -42 -42 опасность
обморожения
779.8
В 2 16 км ясно -32.0 -36.0 67 -40 -40 опасность
обморожения
779.8
В 2 16 км ясно -31.0 -35.0 68 -39 -38 опасность
обморожения
780.3
В 2 16 км ясно -31.0 -35.0 68 -39 -37 опасность
обморожения
780.3
штиль 0 16 км ясно -31.0 -35.0 68 -31 -29 опасность
обморожения
780.6
штиль 0 16 км ясно -30.0 -34.0 68 -30 -28 780.9
штиль 0 16 км ясно -30.0 -34.0 68 -30 -26 780.9
В 2 16 км ясно -30.0 -33.0 75 -37 -34 опасность
обморожения
781.1
штиль 0 16 км ясно -29.0 -33.0 68 -29 -25 781.1
штиль 0 16 км ясно -26.0 -30.0 69 -26 -20 781.4
штиль 0 16 км ясно -26.0 -30.0 69 -26 -20 781.4
штиль 0 16 км ясно -25.0 -28.0 76 -25 -19 781.4
В 2 16 км ясно -25.0 -29.0 69 -32 -26 опасность
обморожения
781.1
штиль 0 16 км ясно -25.0 -28.0 76 -25 -18 781.1
штиль 0 16 км ясно -24.0 -28.0 69 -24 -17 780.9
В 2 16 км ясно -25.0 -28.0 76 -32 -27 опасность
обморожения
780.6
штиль 0 16 км ясно -24.0 -28.0 69 -24 -17 780.6
штиль 0 16 км ясно -23.0 -27.0 70 -23 -16 780.3
штиль 0 16 км ясно -23.0 -27.0 70 -23 -18 780.3
штиль 0 16 км ясно -22.0 -26.0 70 -22 -17 780.3
Ю 2 16 км ясно -23.0 -27.0 70 -29 -25 780.3
штиль 0 16 км ясно -22.0 -26.0 70 -22 -19 780.6
В 2 16 км ясно -22.0 -28.0 58 -28 -26 780.6
ЮВ 4 16 км ясно -24.0 -28.0 69 -34 -32 опасность
обморожения
780.9
ЮВ 3 16 км ясно -25.0 -28.0 76 -34 -33 опасность
обморожения
781.1
ЮВ 2 16 км ясно -25.0 -28.0 76 -32 -31 опасность
обморожения
781.4
ЮВ 2 16 км ясно -26.0 -29.0 76 -33 -32 опасность
обморожения
781.4
ЮВ 2 16 км ясно -26.0 -29.0 76 -33 -33 опасность
обморожения
781.6
В 2 16 км ясно -27.0 -30.0 76 -34 -34 опасность
обморожения
781.9
штиль 0 16 км ясно -28.0 -32.0 68 -28 -28 781.9
штиль 0 16 км ясно -30.0 -33.0 75 -30 -30 782.2
штиль 0 16 км ясно -32.0 -35.0 75 -32 -32 опасность
обморожения
782.4
штиль 0 16 км ясно -32.0 -36.0 67 -32 -32 опасность
обморожения
782.4
штиль 0 16 км ясно -32.0 -36.0 67 -32 -32 опасность
обморожения
782.7
штиль 0 16 км ясно -32.0 -36.0 67 -32 -32 опасность
обморожения
782.7
штиль 0 16 км ясно -34.0 -37.0 74 -34 -34 опасность
обморожения
782.7
З 2 16 км ясно -34.0 -38.0 67 -42 -42 опасность
обморожения
782.7
Местоположение метеостанции Ralph Wenz Field Airport: широта 42.7953 долгота -109.8069 высота над уровнем моря 2160 м.
В архиве по умолчанию представлена погода в Пайндейле за последние 1-2 суток. Обновление информации о фактической погоде в базе происходит ежечасно! Архивные данные за месяц целиком и за предыдущие месяцы Вы можете получить, выбрав интересующий диапазон дат из раскрывающегося списка и нажав кнопку "Ввод!".
Внимание! Архив погоды МЕТАР в базе сайта по станциям, не включенным в климатический монитор, хранится не более 60 дней. Нет смысла пытаться выбрать более раннюю дату.
*Определитесь, кто Вы:
Внимание! Время в таблицах - местное (без учета летнего времени). Для получения всемирного времени необходимо вычесть поправку, которая равна -7 ч.
Смотрите также архив погоды в соседних городах и на ближайших метеорологических станциях:
Партнеры нашего сайта:      
Пояснения к столбцам:
  • Ветер - указаны скорость ветра в м/с - средняя за 10 мин, порывы в срок и между сроками (в фигурных скобках) и направление, откуда дует ветер: С - северный,
  • СВ - северо-восточный, В - восточный, ЮВ - юго-восточный, Ю - южный, ЮЗ - юго-западный, З - западный, СЗ - северо-западный.
  • Видимость - горизонтальная дальность видимости в метрах или километрах. При видимости от 1 до 10 км при отсутствии осадков обычно наблюдается дымка, при ухудшении видимости до 1 км и менее - туман. В сухую погоду видимость может ухудшаться дымом, пылью или мглою.
  • Явления - указаны атмосферные явления, наблюдавшиеся в срок или в последний час перед сроком; фигурными скобками обозначены явления, наблюдавшиеся между сроками (за 1-3 часа до срока); квадратными скобками обозначены град или гололедные отложения с указанием их диаметра в мм.
  • Облачность - указаны через наклонную черту общая и нижняя облачность в баллах и высота нижней границы облаков в метрах; квадратными скобками обозначены формы облаков: Ci - перистые, Cs - перисто-слоистые, Cc - перисто-кучевые, Ac - высококучевые, As - высокослоистые, Sc - слоисто-кучевые, Ns - слоисто-дождевые, Cu - кучевые, Cb - кучево-дождевые. Подробнее классификацию облаков см. в Атласе облаков (PDF).
  • T - Температура воздуха - температура, измеренная на высоте 2 м над землей.
  • Td - Температура точки росы - температура, при понижении до которой содержащийся в воздухе водяной пар достигнет насыщения.
  • f - Относительная влажность воздуха - влажноcть воздуха, измеренная на высоте 2 м над землей.
  • Te - Эффективная температура - температура, которую ощущает одетый по сезону человек в тени. Характеристика душности погоды. При расчете учитывается влияние влажности воздуха и скорости ветра на теплоощущения человека.
  • Tes - Эффективная температура на солнце - температура, которую ощущает человек, с поправкой на солнечный нагрев. Характеристика знойности погоды. Зависит от высоты солнца над горизонтом, облачности и скорости ветра. Ночью, в пасмурную погоду, а также при ветре 12 м/с и более поправка равна нулю.
  • P - Атмосферное давление - приведенное к уровню моря атмосферное давление.
  • Po - Атмосферное давление - измеренное на уровне метеостанции атмосферное давление.
  • Tmin - Минимальная температура - минимум температуры воздуха на высоте 2 м над землей.
  • Tmax - Максимальная температура - максимум температуры воздуха на высоте 2 м над землей.
  • R - Количество осадков - Количество выпавших осадков за период времени, мм. При наведении курсора мыши на число - период времени, за который выпало указанное количество осадков.
  • R24 - Количество осадков - Количество выпавших осадков за 24 часа, мм.
  • S - Снежный покров - Высота снежного покрова, см. При наведении курсора мыши на число - состояние снежного покрова и степень покрытия местности в баллах.